Probability
0 0 0 0 0 0 0 0 0 0 0 0 0 0 0 0 3 3 61 100 100 100 100 100 100 100 100 100 100 100 100 100 100 100 100 74 23 10 0 0 0 0 0
0 0 0 0 0 0 0 0 0 0 0 0 0 0 0 0 0 3 16 65 100 100 100 100 100 100 100 100 100 100 100 100 100 100 81 13 10 3 0 0 0 0 0
0 0 0 0 0 0 0 0 0 0 0 0 0 0 0 0 0 0 0 3 29 100 100 100 100 100 100 100 100 100 100 100 100 97 81 16 0 0 0 0 0 0 0
0 0 0 0 0 0 0 0 0 0 0 0 0 0 0 0 0 0 0 0 0 3 39 100 100 100 100 100 100 100 100 100 100 90 61 13 3 3 0 0 0 0 0
0 0 0 0 0 0 0 0 0 0 0 0 0 0 0 0 0 0 0 0 0 0 0 13 97 100 100 100 100 100 100 97 94 81 42 10 0 0 0 0 0 0 0
0 0 0 0 0 0 0 0 0 0 0 0 0 0 0 0 0 0 0 0 0 0 0 0 3 52 100 100 100 100 97 97 81 77 29 16 3 0 0 0 0 0 0
0 0 0 0 0 0 0 0 0 0 0 0 0 0 0 0 0 0 0 0 0 0 0 0 0 0 0 61 100 100 94 90 39 84 87 48 19 3 3 0 0 0 0
0 0 0 0 0 0 0 0 0 0 0 0 0 0 0 0 0 0 0 0 0 0 0 0 0 0 0 0 32 45 55 90 68 58 58 65 68 35 3 0 0 0 0
0 0 0 0 0 0 0 0 0 0 0 0 0 0 0 0 0 0 0 0 0 0 0 0 0 0 0 0 0 0 10 32 39 19 19 13 58 48 13 0 0 0 0
0 0 0 0 0 0 0 0 0 0 0 0 0 0 0 0 0 0 0 0 0 0 0 0 0 0 0 0 0 0 6 10 16 35 6 13 61 52 16 3 0 0 0
0 0 0 0 0 0 0 0 0 0 0 0 0 0 0 0 0 0 0 0 0 0 0 0 0 0 0 0 0 0 0 0 0 0 6 3 6 10 0 0 0 0 0
0 0 0 0 0 0 0 0 0 0 0 0 0 0 0 0 0 0 0 0 0 0 0 0 0 0 0 0 0 0 0 0 0 0 0 0 0 0 0 0 0 0 0
0 0 0 0 0 0 0 0 0 0 0 0 0 0 0 0 0 0 0 0 0 0 0 0 0 0 0 0 0 0 0 0 0 0 0 0 0 0 0 0 0 0 0
0 0 0 0 0 0 0 0 0 0 0 0 0 0 0 0 0 0 0 0 0 0 0 0 0 0 0 0 0 0 0 0 0 0 0 0 0 0 0 0 0 0 0
0 0 0 0 0 0 0 0 0 0 0 0 0 0 0 0 0 0 0 0 0 0 0 0 0 0 0 0 0 0 0 0 0 0 0 0 0 0 0 0 0 0 0
0 0 0 0 0 0 0 0 0 0 0 0 0 0 0 0 0 0 0 0 0 0 0 0 0 0 0 0 0 0 0 0 0 0 0 0 0 0 0 0 0 0 0
0 0 0 0 0 0 0 0 0 0 0 0 0 0 0 0 0 0 0 0 0 0 0 0 0 0 0 0 0 0 0 0 0 0 0 0 0 0 0 0 0 0 0
0 0 0 0 0 0 0 0 0 0 0 0 0 0 0 0 0 0 0 0 0 0 0 0 0 0 0 0 0 0 0 0 0 0 0 0 0 0 0 0 0 0 0
0 0 0 0 0 0 0 0 0 0 0 0 0 0 0 0 0 0 0 0 0 0 0 0 0 0 0 0 0 0 0 0 0 0 0 0 0 0 0 0 0 0 0
0 0 0 0 0 0 0 0 0 0 0 0 0 0 0 0 0 0 0 0 0 0 0 0 0 0 0 0 0 0 0 0 0 0 0 0 0 0 0 0 0 0 0
0 0 0 0 0 0 0 0 0 0 0 0 0 0 0 0 0 0 0 0 0 0 0 0 0 0 0 0 0 0 0 0 0 0 0 0 0 0 0 0 0 0 0
0 0 0 0 0 0 0 0 0 0 0 0 0 0 0 0 0 0 0 0 0 0 0 0 0 0 0 0 0 0 0 0 0 0 0 0 0 0 0 0 0 0 0
0 0 0 0 0 0 0 0 0 0 0 0 0 0 0 0 0 0 0 0 0 0 0 0 0 0 0 0 0 0 0 0 0 0 0 0 0 0 0 0 0 0 0
0 0 0 0 0 0 0 0 0 0 0 0 0 0 0 0 0 0 0 0 0 0 0 0 0 0 0 0 0 0 0 0 0 0 0 0 0 0 0 0 0 0 0
0 0 0 0 0 0 0 0 0 0 0 0 0 0 0 0 0 0 0 0 0 0 0 0 0 0 0 0 0 0 0 0 0 0 0 0 0 0 0 0 0 0 0
0 0 0 0 0 0 0 0 0 0 0 0 0 0 0 0 0 0 0 0 0 0 0 0 0 0 0 0 0 0 0 0 0 0 0 0 0 0 0 0 0 0 0
Height
5887 5886 5885 5884 5883 5881 5881 5880 5878 5875 5875 5874 5874 5875 5876 5878 5880 5880 5881 5882 5883 5886 5887 5889 5890 5891 5891 5892 5892 5893 5893 5895 5896 5897 5898 5901 5903 5905 5907 5908 5909 5909 5911
5883 5883 5882 5881 5880 5879 5878 5877 5876 5875 5874 5874 5874 5874 5874 5874 5875 5877 5877 5878 5878 5880 5883 5885 5887 5887 5888 5888 5889 5890 5890 5891 5893 5894 5895 5898 5900 5903 5905 5906 5906 5907 5908
5880 5879 5878 5876 5876 5875 5874 5873 5872 5871 5870 5869 5868 5869 5869 5870 5872 5873 5873 5873 5873 5875 5877 5880 5882 5883 5884 5884 5885 5886 5888 5889 5891 5891 5892 5894 5897 5900 5902 5903 5903 5904 5906
5876 5875 5873 5872 5871 5870 5870 5869 5868 5866 5864 5864 5864 5864 5864 5865 5865 5866 5868 5868 5868 5870 5872 5873 5876 5878 5879 5880 5881 5882 5883 5885 5887 5889 5890 5892 5894 5896 5898 5900 5901 5902 5903
5870 5869 5868 5867 5867 5866 5865 5864 5863 5861 5860 5859 5859 5858 5858 5859 5859 5860 5862 5864 5864 5864 5866 5868 5870 5873 5875 5876 5877 5878 5879 5881 5884 5886 5889 5890 5892 5893 5895 5897 5898 5899 5900
5866 5864 5864 5863 5862 5861 5859 5857 5855 5855 5855 5854 5853 5853 5852 5854 5854 5856 5857 5858 5859 5860 5861 5863 5865 5868 5871 5872 5873 5874 5875 5877 5880 5883 5886 5888 5890 5890 5892 5894 5896 5897 5898
5860 5858 5858 5857 5856 5855 5853 5851 5849 5849 5849 5849 5848 5848 5848 5848 5850 5851 5852 5854 5855 5856 5857 5859 5861 5863 5866 5868 5869 5870 5872 5874 5876 5879 5882 5884 5887 5888 5889 5891 5893 5894 5895
5855 5855 5853 5853 5853 5850 5848 5847 5845 5843 5842 5843 5843 5843 5844 5844 5844 5845 5847 5849 5850 5851 5853 5854 5857 5858 5861 5864 5865 5866 5869 5871 5873 5876 5878 5880 5883 5885 5887 5889 5890 5892 5892
5850 5851 5849 5849 5847 5844 5843 5840 5838 5838 5836 5836 5837 5837 5838 5838 5839 5840 5841 5843 5844 5846 5848 5849 5851 5853 5856 5858 5860 5862 5864 5867 5869 5871 5874 5876 5879 5881 5884 5886 5887 5888 5889
5843 5844 5843 5841 5840 5838 5837 5835 5833 5832 5831 5830 5831 5831 5831 5832 5833 5834 5835 5837 5839 5841 5842 5844 5846 5849 5851 5854 5857 5858 5859 5862 5865 5867 5870 5873 5875 5877 5879 5881 5883 5884 5885
5839 5838 5835 5834 5833 5833 5834 5832 5829 5828 5827 5825 5825 5825 5825 5825 5826 5827 5829 5830 5832 5835 5837 5839 5842 5844 5847 5849 5853 5855 5856 5858 5860 5864 5866 5868 5871 5873 5875 5877 5879 5880 5881
5832 5831 5827 5828 5828 5827 5827 5826 5822 5820 5820 5819 5819 5820 5819 5819 5820 5821 5824 5824 5826 5829 5832 5833 5836 5839 5842 5845 5847 5849 5851 5853 5856 5859 5862 5864 5866 5868 5869 5871 5873 5875 5876
5826 5826 5824 5823 5822 5821 5819 5818 5816 5814 5812 5812 5812 5813 5812 5813 5814 5814 5816 5818 5820 5823 5826 5828 5831 5834 5836 5839 5841 5843 5845 5847 5851 5854 5857 5859 5861 5863 5865 5866 5868 5870 5872
5820 5820 5819 5817 5816 5816 5813 5811 5809 5808 5808 5806 5806 5806 5806 5807 5808 5809 5810 5813 5815 5819 5821 5823 5826 5829 5831 5834 5836 5838 5840 5843 5846 5849 5853 5854 5856 5858 5860 5863 5864 5866 5867
5814 5812 5811 5810 5809 5808 5805 5804 5803 5803 5804 5801 5800 5800 5800 5801 5802 5803 5805 5806 5809 5813 5815 5818 5821 5825 5828 5830 5832 5833 5835 5838 5841 5845 5848 5850 5852 5854 5856 5858 5860 5862 5863
5808 5808 5804 5802 5802 5799 5796 5796 5797 5794 5795 5794 5795 5796 5796 5796 5797 5798 5799 5798 5801 5806 5811 5814 5817 5820 5824 5826 5827 5829 5831 5833 5837 5840 5843 5846 5849 5850 5852 5853 5855 5857 5858
5802 5799 5795 5793 5789 5787 5789 5791 5790 5791 5789 5789 5790 5791 5791 5792 5792 5793 5795 5796 5799 5803 5806 5811 5813 5815 5818 5821 5823 5825 5827 5829 5832 5835 5838 5841 5843 5845 5847 5848 5851 5853 5854
5792 5789 5787 5783 5779 5778 5781 5784 5784 5784 5785 5784 5786 5786 5787 5788 5788 5788 5790 5793 5796 5798 5802 5805 5807 5810 5812 5816 5818 5820 5822 5824 5826 5829 5832 5835 5837 5839 5841 5843 5845 5847 5849
5783 5781 5780 5774 5772 5773 5775 5777 5779 5780 5781 5780 5782 5783 5784 5784 5784 5784 5786 5790 5792 5794 5797 5799 5800 5803 5806 5809 5812 5815 5817 5819 5821 5824 5826 5829 5831 5832 5834 5837 5839 5841 5843
5776 5773 5770 5767 5765 5767 5769 5771 5774 5776 5776 5776 5777 5778 5780 5780 5780 5781 5782 5784 5786 5788 5790 5793 5795 5797 5799 5802 5805 5808 5810 5813 5816 5818 5820 5822 5824 5826 5829 5831 5832 5834 5836
5769 5765 5761 5759 5759 5759 5762 5765 5768 5769 5771 5771 5771 5772 5773 5774 5774 5776 5778 5780 5781 5783 5785 5787 5790 5791 5792 5795 5798 5799 5802 5805 5808 5812 5813 5815 5818 5821 5822 5824 5825 5827 5828
5763 5759 5757 5757 5756 5755 5756 5758 5761 5762 5764 5764 5765 5765 5766 5768 5768 5770 5772 5774 5776 5778 5780 5781 5783 5785 5786 5788 5790 5792 5795 5799 5801 5804 5807 5810 5813 5813 5814 5817 5819 5820 5821
5760 5759 5757 5755 5753 5752 5751 5751 5753 5754 5755 5756 5757 5758 5759 5761 5762 5763 5766 5768 5769 5772 5775 5776 5777 5777 5779 5781 5782 5785 5786 5790 5793 5795 5800 5802 5804 5804 5806 5808 5810 5811 5812
5758 5756 5754 5752 5751 5749 5747 5747 5747 5746 5747 5747 5748 5749 5751 5752 5754 5756 5759 5761 5763 5765 5767 5769 5770 5771 5772 5773 5775 5776 5777 5780 5784 5786 5790 5793 5794 5796 5799 5800 5802 5803 5803
5753 5751 5749 5747 5746 5745 5743 5742 5741 5742 5740 5740 5740 5742 5744 5745 5747 5749 5752 5754 5756 5759 5760 5761 5762 5763 5764 5766 5767 5768 5768 5770 5773 5776 5779 5783 5784 5786 5790 5791 5792 5792 5792
5748 5746 5744 5742 5741 5739 5738 5736 5736 5736 5735 5735 5734 5735 5737 5739 5740 5743 5745 5747 5748 5750 5752 5754 5755 5757 5758 5759 5759 5760 5760 5762 5765 5767 5769 5773 5774 5776 5779 5782 5783 5783 5783
Wind_Speed
14 13 13 13 12 11 8 8 5 6 9 10 11 16 20 23 23 23 23 21 20 19 18 17 16 16 14 14 13 14 14 16 17 19 21 19 18 16 14 12 10 9 8
16 14 15 17 17 15 12 9 7 8 10 11 12 16 19 24 28 30 27 25 24 23 23 22 22 22 21 20 18 17 17 19 17 18 21 21 20 18 17 15 12 10 9
17 16 17 19 20 18 17 17 16 16 13 13 12 16 20 21 24 28 28 26 26 26 26 25 23 22 21 21 21 18 18 20 19 17 20 20 21 19 16 15 13 12 10
16 18 18 19 20 19 21 22 23 23 19 15 16 17 21 23 24 25 27 25 23 24 24 24 21 20 20 20 19 19 19 20 21 19 19 20 20 18 16 15 14 13 12
18 18 18 19 19 22 25 27 26 24 21 21 22 22 23 24 24 24 26 25 24 24 23 24 24 23 20 20 17 17 18 21 23 21 20 19 19 19 17 17 16 15 13
18 19 18 21 22 24 27 31 29 25 25 26 25 25 24 22 23 22 23 24 23 23 23 24 25 24 21 19 15 14 15 18 22 23 22 21 20 19 18 17 17 16 15
19 19 21 22 24 26 28 29 29 26 26 26 25 24 23 21 21 21 21 23 24 23 22 23 24 22 22 21 19 16 15 17 21 24 24 22 21 21 19 17 16 16 16
22 22 24 24 26 29 28 26 26 24 25 26 26 25 23 22 19 20 22 23 24 24 23 23 25 23 22 23 22 19 19 19 21 24 25 23 22 22 21 20 18 17 16
25 26 26 26 27 26 23 23 24 25 25 24 24 25 25 24 23 23 25 25 26 25 23 23 25 24 23 23 22 20 21 22 23 23 24 24 24 23 23 23 21 19 18
28 28 26 24 23 22 22 21 24 27 25 25 24 25 26 29 27 23 27 25 25 26 25 24 25 24 24 23 22 21 21 22 23 25 25 25 25 25 25 25 24 21 20
28 28 25 25 23 20 21 22 25 28 27 28 27 27 26 28 24 27 24 23 25 26 27 25 26 25 25 23 22 20 22 23 23 25 26 26 27 27 28 28 28 25 24
29 29 26 25 21 22 23 23 27 27 26 29 30 29 28 29 28 28 25 24 26 27 28 26 27 27 26 25 24 25 26 25 25 26 25 25 26 26 27 28 29 29 28
31 28 28 28 26 26 23 25 29 28 26 28 28 28 28 28 28 32 28 25 30 29 27 25 25 26 26 27 26 26 27 27 26 25 25 25 24 23 23 23 24 27 27
28 30 32 33 30 28 25 25 29 28 25 24 24 24 25 27 27 27 27 26 28 29 27 24 21 23 22 23 24 25 27 28 26 24 23 24 22 21 21 20 21 23 24
28 32 34 34 33 29 24 23 24 23 22 20 19 18 18 18 19 24 26 29 32 31 27 23 22 20 18 17 19 21 24 28 28 26 24 23 22 22 22 21 20 20 20
31 34 34 34 33 28 24 22 23 21 19 16 15 16 17 17 15 18 21 22 23 26 25 23 23 20 19 18 16 18 20 26 28 27 25 24 25 26 24 23 21 20 20
31 32 29 28 25 23 23 23 22 21 19 16 15 15 16 14 12 14 15 17 20 24 24 24 25 23 22 21 21 18 17 21 26 29 29 28 29 29 27 25 23 22 21
24 25 28 24 18 17 20 22 22 20 19 16 16 15 15 16 14 13 13 15 18 19 25 30 30 27 26 24 23 23 22 21 22 25 28 29 29 30 28 26 25 24 24
21 22 25 23 20 18 18 20 22 22 20 18 18 18 17 17 17 18 17 15 16 20 23 25 28 28 29 29 28 26 25 25 24 24 24 25 27 27 27 26 25 25 25
22 22 24 23 23 21 19 20 24 24 21 20 21 23 22 20 19 18 20 21 19 20 22 23 25 26 29 31 30 30 30 29 28 27 26 27 28 28 28 26 26 26 26
17 17 20 18 19 19 20 21 27 27 25 22 24 26 26 24 21 21 21 21 21 21 23 24 25 24 24 27 32 32 32 32 33 31 31 30 28 28 30 30 30 29 30
13 15 15 14 16 20 21 23 27 28 28 27 27 27 29 28 23 22 24 24 24 24 25 26 26 27 27 28 32 35 35 32 32 35 34 31 29 31 31 30 31 32 31
14 15 16 14 15 16 16 19 23 25 23 27 27 27 28 30 28 26 25 26 25 26 26 25 24 25 26 28 31 31 35 37 37 36 35 35 33 34 34 32 31 32 34
16 15 15 15 15 15 14 16 18 18 18 19 23 25 27 28 29 28 27 26 26 27 27 26 24 24 25 24 25 30 32 36 39 42 39 37 37 36 34 33 33 33 34
14 13 14 15 15 16 17 18 17 19 20 19 21 23 26 27 28 28 28 28 27 27 28 28 28 27 27 28 28 28 32 37 37 42 43 38 37 36 33 33 34 35 35
13 13 13 14 15 16 17 18 19 20 22 21 22 25 25 25 25 24 25 26 25 24 25 24 26 27 27 27 28 27 26 32 39 42 44 41 40 41 40 36 34 34 36
Wind_Direction
309 299 305 316 320 325 338 337 335 312 293 273 251 247 242 237 233 231 236 241 246 251 253 254 256 261 266 262 255 252 246 240 238 230 225 219 213 211 219 233 239 235 227
310 295 299 310 313 313 315 316 301 304 294 283 268 255 248 244 240 238 237 242 247 250 253 256 260 267 268 261 252 251 245 239 244 232 222 220 221 224 225 225 231 232 229
307 303 300 306 305 301 311 321 313 304 294 276 264 260 253 247 245 246 243 240 243 247 249 254 258 262 266 256 249 248 246 238 239 229 223 224 224 220 212 220 231 234 231
300 298 295 298 293 289 301 310 303 298 294 281 275 267 260 249 244 246 246 243 242 244 246 247 250 256 259 250 244 246 246 240 234 228 226 219 215 216 214 224 234 240 236
288 281 285 286 281 283 288 292 290 286 290 287 282 271 262 252 244 243 244 247 245 239 241 243 247 253 251 243 242 243 241 239 231 226 227 220 216 219 222 228 235 242 240
270 271 281 280 278 279 282 286 287 286 286 286 285 277 272 260 248 242 241 244 245 240 239 244 247 248 243 237 240 245 242 240 229 224 222 220 218 223 229 231 235 242 242
265 271 278 277 274 279 280 280 286 287 286 283 280 275 273 270 257 245 241 244 244 240 240 241 240 239 238 236 235 240 238 233 226 223 220 220 222 227 233 236 238 243 243
262 267 274 278 277 278 277 277 276 275 278 277 276 274 268 263 257 255 249 249 244 238 241 239 239 230 232 235 236 237 234 229 229 227 225 225 228 232 235 238 241 244 246
265 269 273 278 279 278 274 270 271 274 272 271 271 272 267 263 260 262 253 250 249 241 240 238 237 232 232 233 235 235 234 231 229 229 229 229 232 237 239 240 242 245 248
265 275 280 283 278 272 269 269 269 270 273 272 271 270 269 267 264 268 252 245 249 244 241 236 235 232 232 232 235 239 234 231 233 230 230 231 234 239 242 243 244 246 249
269 276 278 278 276 273 275 276 272 272 275 274 270 265 263 270 260 258 262 250 250 247 242 237 235 235 236 232 237 237 237 233 236 234 233 236 238 241 245 246 245 245 249
269 270 272 276 283 283 282 281 275 276 281 279 273 267 263 268 268 257 266 251 245 247 243 236 232 234 238 237 235 236 236 229 231 235 238 241 243 245 247 247 244 241 244
272 277 281 284 285 282 287 288 282 283 282 277 274 268 264 258 264 260 272 264 239 238 241 236 231 233 239 244 242 241 236 228 229 233 237 240 242 245 248 246 243 240 239
279 285 287 287 288 290 292 289 283 284 282 281 279 271 267 263 261 260 266 260 241 235 233 232 230 230 235 242 242 242 237 229 229 229 234 237 238 243 246 246 245 241 239
283 284 284 288 289 288 285 286 288 289 287 289 283 266 266 268 265 258 260 260 247 229 224 228 229 227 232 237 239 239 235 228 228 228 229 234 238 241 248 251 247 241 242
287 284 286 286 280 278 279 283 285 280 276 278 276 260 261 265 266 271 265 256 225 222 215 227 233 231 230 232 235 236 232 230 231 232 233 236 241 243 251 253 246 243 242
280 286 286 280 279 281 282 282 277 278 274 262 257 257 254 252 265 270 262 235 223 216 214 229 236 237 239 238 237 237 235 231 233 233 233 236 239 243 248 249 246 244 243
292 291 282 279 284 285 278 274 273 270 264 261 257 254 245 242 249 254 253 229 223 217 219 232 239 239 239 241 242 239 238 236 233 232 233 237 238 241 244 246 246 244 243
296 298 296 280 279 282 275 266 267 265 259 253 253 254 252 249 247 244 235 230 231 229 228 233 237 242 244 244 243 243 240 238 237 235 234 238 240 241 242 243 244 244 245
297 292 296 280 269 266 265 264 264 264 262 252 249 253 255 254 250 246 237 229 234 236 233 231 239 243 247 245 241 239 239 239 240 244 242 240 242 243 246 247 249 250 252
297 303 305 288 271 256 256 264 267 263 264 256 247 247 250 251 249 246 241 235 234 234 236 237 243 249 251 247 240 237 238 241 241 242 241 243 246 249 249 248 247 248 250
309 312 311 300 282 272 264 263 265 264 261 258 253 247 246 249 249 247 242 238 239 243 243 244 247 250 247 251 249 247 244 242 241 242 242 244 247 249 249 250 250 250 250
314 311 307 297 286 284 274 265 263 264 263 259 256 251 246 246 247 246 245 244 243 244 248 248 251 253 257 257 253 255 252 245 245 244 243 250 249 248 250 254 255 254 253
301 299 298 291 284 277 270 267 268 271 271 270 261 254 249 246 246 247 249 249 249 250 251 253 253 255 259 261 251 254 253 248 249 246 248 253 252 251 250 252 255 255 255
287 288 292 289 284 281 282 287 284 279 278 278 268 256 251 247 248 250 251 252 254 255 256 256 257 258 256 257 257 265 261 247 247 247 251 249 251 251 252 256 260 259 257
287 285 288 289 288 286 286 286 282 277 273 269 263 257 250 248 248 250 253 254 257 258 260 260 258 258 258 261 264 265 262 244 235 242 248 247 250 254 261 261 260 260 261